Boston, MA

9:55 AM EST on January 22, 2018 (GMT -0500)
Logan International

Weather History for KBOS - November, 2013

Change the Weather History Date:

Friday, November 22, 2013

  Actual Average Record
Temperature  
Mean Temperature 45 °F 43 °F  
Max Temperature 48 °F 49 °F 74 °F (1931)
Min Temperature 42 °F 36 °F 9 °F (1879)
Degree Days  
Heating Degree Days 20 22  
Month to date heating degree days 416 419  
Since 1 July heating degree days 768 866  
Cooling Degree Days 0 0  
Month to date cooling degree days 1 0  
Year to date cooling degree days 920 747  
Moisture  
Dew Point 42 °F    
Average Humidity 81    
Maximum Humidity 100    
Minimum Humidity 62    
Precipitation  
Precipitation 0.25 in 0.14 in 2.18 in (1878)
Month to date precipitation 0.83 2.90  
Year to date precipitation 33.85 38.90  
Snow  
Snow 0.00 in 0.10 in 1.00 in (1939)
Month to date snowfall T 0.6  
Since 1 July snowfall T 0.6  
Since 1 September snowfall T 0.6  
Snow Depth 0.00 in    
Sea Level Pressure  
Sea Level Pressure 30.07 in    
Wind  
Wind Speed 5 mph (ESE)    
Max Wind Speed 12 mph    
Max Gust Speed 15 mph    
Visibility 4 miles    
Events Fog , Rain    
T = Trace of Precipitation, MM = Missing Value Source: NWS Daily Summary

Daily Weather History Graph

Daily Weather History Graph

Search for Another Location

Airport or City:

Trip Planner

Search our weather history database for the weather conditions in past years. The results will help you decide how hot, cold, wet, or windy it might be!

Date:

Astronomy

Nov. 22, 2013 Rise Set
Actual Time 6:43 AM EST 4:16 PM EST
Civil Twilight 6:12 AM EST 4:47 PM EST
Nautical Twilight 5:38 AM EST 5:21 PM EST
Astronomical Twilight 5:04 AM EST 5:55 PM EST
Moon 8:47 PM EST 10:23 AM EST
Length of Visible Light 10h 34m
Length of Day
9h 32m
Waning Gibbous, 78% of the Moon is Illuminated
Nov 22
Waning Gibbous
Nov 25
Last Quarter
Dec 2
New
Dec 9
First Quarter
Dec 17
Full

Hourly Weather History & Observations

Time (EST) Temp. Windchill Dew Point Humidity Pressure Visibility Wind Dir Wind Speed Gust Speed Precip Events Conditions
12:54 AM 43.0 °F 37.7 °F 30.9 °F 62% 30.36 in 10.0 mi SW 9.2 mph - N/A   Overcast
1:54 AM 43.0 °F 38.2 °F 32.0 °F 65% 30.35 in 10.0 mi SW 8.1 mph - N/A   Mostly Cloudy
2:54 AM 44.1 °F 39.5 °F 34.0 °F 68% 30.33 in 10.0 mi WSW 8.1 mph - N/A   Overcast
3:54 AM 44.1 °F 38.6 °F 35.1 °F 71% 30.31 in 10.0 mi SW 10.4 mph - N/A   Mostly Cloudy
4:54 AM 44.1 °F 39.5 °F 35.1 °F 71% 30.28 in 10.0 mi SW 8.1 mph - N/A   Scattered Clouds
5:54 AM 44.1 °F 40.1 °F 37.0 °F 76% 30.27 in 10.0 mi SW 6.9 mph - 0.00 in Rain Light Rain
6:54 AM 44.1 °F 40.1 °F 39.0 °F 82% 30.26 in 9.0 mi SW 6.9 mph - 0.01 in Rain Light Rain
7:54 AM 44.1 °F 42.5 °F 39.9 °F 85% 30.23 in 6.0 mi South 3.5 mph - 0.02 in Rain Light Rain
8:50 AM 44.6 °F 43.1 °F 41.0 °F 87% 30.21 in 6.0 mi SSE 3.5 mph - 0.02 in Rain Light Rain
8:54 AM 44.1 °F - 41.0 °F 89% 30.21 in 7.0 mi Calm Calm - 0.02 in Rain Light Rain
9:54 AM 44.1 °F 42.5 °F 42.1 °F 93% 30.17 in 4.0 mi SSE 3.5 mph - 0.04 in Rain Light Rain
10:21 AM 44.6 °F 42.2 °F 42.8 °F 93% 30.16 in 1.8 mi SSE 4.6 mph - 0.01 in Rain Light Rain
10:54 AM 45.0 °F 43.5 °F 43.0 °F 93% 30.14 in 1.0 mi South 3.5 mph - 0.06 in Rain Rain
11:39 AM 44.6 °F 43.1 °F 42.8 °F 93% 30.10 in 0.5 mi ESE 3.5 mph - 0.05 in Rain Light Rain
11:47 AM 44.6 °F 43.1 °F 42.8 °F 93% 30.09 in 0.5 mi East 3.5 mph - 0.06 in Rain Light Rain
11:54 AM 45.0 °F 42.6 °F 43.0 °F 93% 30.09 in 0.5 mi East 4.6 mph - 0.07 in Rain Rain
12:10 PM 44.6 °F 43.1 °F 44.6 °F 100% 30.08 in 0.5 mi ESE 3.5 mph - 0.01 in Rain Light Rain
12:30 PM 44.6 °F 42.2 °F 44.6 °F 100% 30.07 in 0.5 mi ENE 4.6 mph - 0.03 in Rain Light Rain
12:54 PM 45.0 °F 43.5 °F 44.1 °F 97% 30.05 in 2.0 mi ENE 3.5 mph - 0.03 in Rain Light Rain
1:54 PM 46.0 °F 43.9 °F 44.1 °F 93% 30.01 in 2.0 mi East 4.6 mph - 0.00 in   Overcast
2:54 PM 46.9 °F - 44.1 °F 90% 30.00 in 2.0 mi NNE 4.6 mph - N/A   Overcast
3:09 PM 46.4 °F 44.3 °F 44.6 °F 93% 30.00 in 2.0 mi North 4.6 mph - N/A   Overcast
3:41 PM 46.4 °F 45.2 °F 44.6 °F 93% 29.99 in 1.0 mi North 3.5 mph - N/A   Overcast
3:54 PM 46.0 °F 43.9 °F 44.1 °F 93% 29.99 in 1.0 mi North 4.6 mph - N/A   Overcast
4:26 PM 46.4 °F 43.5 °F 44.6 °F 93% 29.97 in 2.0 mi NNW 5.8 mph - N/A   Overcast
4:54 PM 46.9 °F - 44.1 °F 90% 29.98 in 2.0 mi WNW 5.8 mph - N/A   Overcast
5:01 PM 46.4 °F 43.5 °F 44.6 °F 93% 29.97 in 5.0 mi NW 5.8 mph - N/A   Overcast
5:25 PM 46.4 °F 43.5 °F 44.6 °F 93% 29.97 in 6.0 mi NW 5.8 mph - N/A   Overcast
5:54 PM 46.9 °F - 44.1 °F 90% 29.94 in 6.0 mi NNW 3.5 mph - N/A   Overcast
6:05 PM 46.4 °F 45.2 °F 44.6 °F 93% 29.94 in 4.0 mi NNE 3.5 mph - N/A   Overcast
6:20 PM 46.4 °F 45.2 °F 44.6 °F 93% 29.94 in 2.5 mi NE 3.5 mph - N/A   Overcast
6:34 PM 44.6 °F 41.4 °F 42.8 °F 93% 29.94 in 0.5 mi NE 5.8 mph - N/A   Overcast
6:54 PM 44.1 °F 42.5 °F 43.0 °F 96% 29.94 in 0.5 mi ENE 3.5 mph - N/A   Overcast
7:54 PM 44.1 °F 42.5 °F 42.1 °F 93% 29.92 in 0.5 mi ENE 3.5 mph - N/A Fog Fog
8:54 PM 44.1 °F 41.5 °F 42.1 °F 93% 29.90 in 0.5 mi SE 4.6 mph - N/A Fog Fog
9:52 PM 44.6 °F - 42.8 °F 93% 29.87 in 0.2 mi Calm Calm - 0.00 in Fog Fog
9:54 PM 44.1 °F 42.5 °F 43.0 °F 96% 29.87 in 0.2 mi SSE 3.5 mph - 0.00 in Fog Fog
10:15 PM 44.6 °F - 42.8 °F 93% 29.86 in 0.2 mi Calm Calm - N/A Fog Fog
10:50 PM 44.6 °F - 44.6 °F 100% 29.85 in 2.0 mi Calm Calm - 0.00 in Rain Light Rain
10:54 PM 45.0 °F 43.5 °F 44.1 °F 97% 29.85 in 3.0 mi South 3.5 mph - 0.00 in Rain Light Rain
11:54 PM 48.0 °F - 45.0 °F 89% 29.83 in 7.0 mi WSW 8.1 mph - N/A   Overcast